2020 UU
ephemeris date magn radius delta ra dec elong phase
Today16 Oct 202533.42.131 AU3.065 AU12h19m-02°30'17.0°7.9°
2020 UU - 2025-10-16
astro.vanbuitenen.nl


 
-1 year
-1 month
-1 day
Now
+1 day
+1 month
+1 year

The interactive orbit chart above shows the body's path through the solar system and its position at the given date. Green and blue lines are shown perpendicular to the ecliptic plane: Green if the path is above the ecliptic plane, blue if it is below. (Left-click and drag to rotate the view; Right-click and drag to move the view; Use scroll wheel to zoom in our out.)

The orbital elements of 2020 UU are:

            e (Eccentricity)                : 0.4064560
            a (Semimajor axis)              : 1.5640371
            i (Inclination)                 : 1.51237
            Ω (Longitude of ascending node) : 196.01066
            ω (Argument of perihelion)      : 144.07294
            M (Mean anomaly)                : 134.67142
            Epoch                           : 2025 May 05

            L (Longitude of perihelion)     : 160.09308
            B (Latitude of perihelion)      : 0.88732
            P (Orbital period in years)     : 1.96            
        

The light curve chart below shows the estimated development of the minor planet's magnitude.


The all-sky chart below shows the path of the minor planet over the same period as the light curve. The current position is marked yellow.





The following chart shows the path of the minor planet in the next few days. The field of view is optimized for (~10x50) binoculars and finderscopes. A more printer-friendly version of the same chart can be found below.




Ephemerides:
Date       Time       RA (2000)    DEC (2000)    delta   radius  elong  phase   PA    magn
2025-10-16 00:00 UT   12 19 49.0   -02 30 14     3.065    2.131   17.0    7.9   292   33.4 
2025-10-16 03:51 UT   12 20 06.1   -02 32 02     3.064    2.131   17.1    7.9   292   33.4 
2025-10-17 00:00 UT   12 21 35.8   -02 41 29     3.059    2.130   17.5    8.1   292   33.4 
2025-10-18 00:00 UT   12 23 22.8   -02 52 44     3.053    2.128   18.0    8.3   292   33.5 
2025-10-19 00:00 UT   12 25 09.9   -03 03 59     3.047    2.126   18.5    8.6   292   33.5 
2025-10-20 00:00 UT   12 26 57.1   -03 15 15     3.040    2.124   19.0    8.8   292   33.5 
2025-10-21 00:00 UT   12 28 44.4   -03 26 29     3.034    2.122   19.5    9.0   292   33.5 
2025-10-22 00:00 UT   12 30 31.9   -03 37 44     3.027    2.120   20.0    9.3   292   33.5 
2025-10-23 00:00 UT   12 32 19.5   -03 48 59     3.021    2.118   20.6    9.5   292   33.5 
2025-10-24 00:00 UT   12 34 07.2   -04 00 13     3.014    2.116   21.1    9.7   292   33.5 
2025-10-25 00:00 UT   12 35 55.1   -04 11 27     3.007    2.114   21.6   10.0   292   33.5 
2025-10-26 00:00 UT   12 37 43.1   -04 22 41     3.000    2.112   22.1   10.2   292   33.5 
2025-10-27 00:00 UT   12 39 31.2   -04 33 54     2.992    2.110   22.6   10.4   292   33.5 
2025-10-28 00:00 UT   12 41 19.5   -04 45 06     2.985    2.107   23.1   10.7   292   33.5 
2025-10-29 00:00 UT   12 43 07.9   -04 56 19     2.977    2.105   23.6   10.9   292   33.5 
2025-10-30 00:00 UT   12 44 56.4   -05 07 30     2.970    2.103   24.1   11.1   292   33.5 
2025-10-31 00:00 UT   12 46 45.2   -05 18 41     2.962    2.101   24.6   11.4   292   33.5 
2025-11-01 00:00 UT   12 48 34.0   -05 29 51     2.954    2.099   25.2   11.6   292   33.5 
2025-11-02 00:00 UT   12 50 23.0   -05 41 01     2.946    2.096   25.7   11.8   292   33.5 


    Terminology:
            
    delta:  distance between minor planet and earth in AU
    radius: distance between minor planet and sun in AU
    magn:   magnitude (brightness) estimate    
    ra:     right ascension in hours (24h = 360deg)
    dec:    declination in degrees
    elong:  elongation in degrees (angle sun-earth-minor planet)    
    phase:  phase angle in degrees (angle sun-minor planet-earth)        
    AU:     Astronomical Unit (mean distance between earth and sun: 149597870.7 km
    

Orbital elements provided by the MPC (Minor Planet Center).
Calculations by a modified version of AAPlus, a C# implementation of the AA+ project by PJ Naughter from the algorithms presented in the book "Astronomical Algorithms" by Jean Meeus.
NGC2000 dso catalog and star labels from VizieR as provided by the Strasbourg astronomical Data Center.
Tycho2 catalog from the ESO archive.